TSO2164 URKK-UUDD

Flight info

Callsign TSO2164
Flight time 1h 42m
Altitude 36000
Route URKK/05R K0833F360 RINE6V RINEK L91 KANON T748 PEPOR T611 TUKMO N50 OLOPI OLOP3N UUDD/31L
Aircraft B738/M-L/L

Departure

Time 2026-05-04 12:23
Airport Krasnodar Pashkovsky International Airport (URKK)

Arrival

Time 2026-05-04 14:06
Airport Domodedovo International Airport (UUDD)
Time Latitude Longitude Altitude Speed Heading
2026-05-04 12:01 45.03467 39.14124 105 ft 0 kts 332°
2026-05-04 12:10 45.03464 39.14127 105 ft 3 kts 332°
2026-05-04 12:10 45.03446 39.14140 104 ft 3 kts 332°
2026-05-04 12:10 45.03431 39.14151 105 ft 3 kts 352°
2026-05-04 12:11 45.03417 39.14147 103 ft 3 kts 46°
2026-05-04 12:11 45.03406 39.14126 105 ft 3 kts 60°
2026-05-04 12:11 45.03396 39.14100 105 ft 3 kts 60°
2026-05-04 12:11 45.03386 39.14075 105 ft 3 kts 61°
2026-05-04 12:12 45.03384 39.14069 105 ft 0 kts 61°
2026-05-04 12:14 45.03446 39.14230 105 ft 8 kts 60°
2026-05-04 12:15 45.03476 39.14305 105 ft 10 kts 60°
2026-05-04 12:15 45.03512 39.14395 105 ft 11 kts 60°
2026-05-04 12:15 45.03551 39.14494 104 ft 12 kts 60°
2026-05-04 12:15 45.03593 39.14599 104 ft 13 kts 60°
2026-05-04 12:16 45.03638 39.14710 105 ft 13 kts 60°
2026-05-04 12:16 45.03686 39.14830 105 ft 14 kts 61°
2026-05-04 12:16 45.03731 39.14946 105 ft 13 kts 61°
2026-05-04 12:16 45.03775 39.15059 105 ft 13 kts 61°
2026-05-04 12:17 45.03822 39.15179 105 ft 14 kts 62°
2026-05-04 12:17 45.03822 39.15305 105 ft 13 kts 112°
2026-05-04 12:17 45.03785 39.15432 105 ft 15 kts 112°
2026-05-04 12:17 45.03745 39.15568 105 ft 15 kts 112°
2026-05-04 12:18 45.03736 39.15711 105 ft 15 kts 86°
2026-05-04 12:18 45.03737 39.15852 105 ft 14 kts 89°
2026-05-04 12:18 45.03738 39.15986 105 ft 14 kts 89°
2026-05-04 12:18 45.03721 39.16116 104 ft 14 kts 133°
2026-05-04 12:19 45.03641 39.16205 105 ft 15 kts 143°
2026-05-04 12:19 45.03554 39.16299 105 ft 16 kts 143°
2026-05-04 12:19 45.03460 39.16400 105 ft 17 kts 142°
2026-05-04 12:19 45.03363 39.16507 105 ft 18 kts 142°
2026-05-04 12:20 45.03266 39.16613 105 ft 17 kts 142°
2026-05-04 12:20 45.03171 39.16714 105 ft 17 kts 143°
2026-05-04 12:20 45.03077 39.16814 105 ft 17 kts 142°
2026-05-04 12:20 45.02984 39.16915 105 ft 17 kts 143°
2026-05-04 12:21 45.02889 39.17017 105 ft 17 kts 143°
2026-05-04 12:21 45.02794 39.17123 104 ft 17 kts 140°
2026-05-04 12:21 45.02723 39.17204 106 ft 7 kts 142°
2026-05-04 12:21 45.02705 39.17223 106 ft 3 kts 142°
2026-05-04 12:22 45.02687 39.17242 107 ft 4 kts 142°
2026-05-04 12:22 45.02654 39.17281 109 ft 7 kts 133°
2026-05-04 12:22 45.02637 39.17351 111 ft 9 kts 81°
2026-05-04 12:22 45.02672 39.17432 111 ft 10 kts 53°
2026-05-04 12:23 45.02718 39.17519 110 ft 18 kts 53°
2026-05-04 12:23 45.02955 39.17953 113 ft 93 kts 52°
2026-05-04 12:23 45.03479 39.18924 220 ft 145 kts 54°
2026-05-04 12:23 45.04087 39.20055 1038 ft 143 kts 55°
2026-05-04 12:24 45.04691 39.21170 1834 ft 140 kts 56°
2026-05-04 12:24 45.05274 39.22239 2363 ft 137 kts 57°
2026-05-04 12:24 45.05864 39.23326 2662 ft 140 kts 58°
2026-05-04 12:24 45.06464 39.24432 2938 ft 144 kts 58°
2026-05-04 12:25 45.07079 39.25566 3229 ft 149 kts 58°
2026-05-04 12:25 45.07748 39.26809 3393 ft 174 kts 58°
2026-05-04 12:25 45.08537 39.28275 3626 ft 201 kts 57°
2026-05-04 12:25 45.09436 39.29942 3830 ft 226 kts 57°
2026-05-04 12:26 45.10431 39.31804 4170 ft 245 kts 59°
2026-05-04 12:26 45.11250 39.33939 4928 ft 248 kts 68°
2026-05-04 12:26 45.11964 39.36205 5712 ft 257 kts 69°
2026-05-04 12:26 45.12689 39.38559 6549 ft 264 kts 67°
2026-05-04 12:27 45.13441 39.40975 7218 ft 277 kts 68°
2026-05-04 12:27 45.14228 39.43476 7953 ft 282 kts 68°
2026-05-04 12:27 45.15048 39.46061 8562 ft 293 kts 68°
2026-05-04 12:27 45.15892 39.48700 9333 ft 296 kts 68°
2026-05-04 12:28 45.16757 39.51397 9937 ft 306 kts 68°
2026-05-04 12:28 45.17652 39.54186 10376 ft 321 kts 68°
2026-05-04 12:28 45.18611 39.57175 10551 ft 344 kts 68°
2026-05-04 12:28 45.19631 39.60355 10793 ft 363 kts 68°
2026-05-04 12:29 45.20713 39.63644 11286 ft 374 kts 63°
2026-05-04 12:29 45.22379 39.66497 11936 ft 380 kts 38°
2026-05-04 12:29 45.24666 39.68271 12660 ft 384 kts 18°
2026-05-04 12:29 45.27286 39.69119 13256 ft 390 kts 11°
2026-05-04 12:30 45.29950 39.69893 13974 ft 392 kts 12°
2026-05-04 12:30 45.32634 39.70689 14551 ft 397 kts 12°
2026-05-04 12:30 45.35338 39.71504 15199 ft 398 kts 12°
2026-05-04 12:30 45.38054 39.72332 15812 ft 401 kts 12°
2026-05-04 12:31 45.40800 39.73177 16381 ft 404 kts 13°
2026-05-04 12:31 45.43525 39.74021 17242 ft 400 kts 13°
2026-05-04 12:31 45.46245 39.74867 17963 ft 400 kts 13°
2026-05-04 12:31 45.48935 39.75706 18515 ft 403 kts 14°
2026-05-04 12:32 45.51684 39.76564 19001 ft 406 kts 14°
2026-05-04 12:32 45.57242 39.78303 20007 ft 410 kts 14°
2026-05-04 12:32 45.60027 39.79173 20567 ft 411 kts 14°
2026-05-04 12:33 45.62828 39.80051 21058 ft 413 kts 14°
2026-05-04 12:33 45.65642 39.80933 21538 ft 415 kts 14°
2026-05-04 12:33 45.68441 39.81811 21947 ft 419 kts 14°
2026-05-04 12:33 45.71297 39.82709 22372 ft 422 kts 14°
2026-05-04 12:34 45.74172 39.83613 22814 ft 424 kts 14°
2026-05-04 12:34 45.77061 39.84522 23243 ft 427 kts 14°
2026-05-04 12:34 45.79971 39.85439 23646 ft 429 kts 14°
2026-05-04 12:34 45.82897 39.86362 23997 ft 432 kts 14°
2026-05-04 12:35 45.85837 39.87300 24354 ft 434 kts 15°
2026-05-04 12:35 45.88792 39.88253 24705 ft 436 kts 15°
2026-05-04 12:35 45.91758 39.89213 25054 ft 438 kts 15°
2026-05-04 12:35 45.94702 39.90169 25366 ft 441 kts 15°
2026-05-04 12:36 45.97702 39.91142 25671 ft 443 kts 15°
2026-05-04 12:36 46.00713 39.92119 25982 ft 445 kts 15°
2026-05-04 12:36 46.03745 39.93104 26281 ft 448 kts 15°
2026-05-04 12:36 46.06793 39.94094 26592 ft 450 kts 15°
2026-05-04 12:37 46.09853 39.95089 26882 ft 452 kts 15°
2026-05-04 12:37 46.12930 39.96091 27162 ft 454 kts 15°
2026-05-04 12:37 46.16018 39.97097 27429 ft 457 kts 15°
2026-05-04 12:37 46.19085 39.98098 27686 ft 459 kts 15°
2026-05-04 12:38 46.22210 39.99119 27941 ft 462 kts 15°
2026-05-04 12:38 46.25351 40.00146 28185 ft 464 kts 14°
2026-05-04 12:38 46.28504 40.01178 28436 ft 466 kts 14°
2026-05-04 12:38 46.31677 40.02219 28696 ft 468 kts 14°
2026-05-04 12:39 46.34861 40.03263 28952 ft 470 kts 14°
2026-05-04 12:39 46.38048 40.04310 29225 ft 471 kts 14°
2026-05-04 12:39 46.41243 40.05361 29589 ft 470 kts 14°
2026-05-04 12:39 46.44428 40.06410 29983 ft 469 kts 14°
2026-05-04 12:40 46.47597 40.07455 30322 ft 467 kts 14°
2026-05-04 12:40 46.50724 40.08488 30613 ft 467 kts 15°
2026-05-04 12:40 46.53918 40.09365 30917 ft 468 kts
2026-05-04 12:40 46.57168 40.09549 31248 ft 468 kts
2026-05-04 12:41 46.60421 40.09505 31596 ft 467 kts
2026-05-04 12:41 46.63663 40.09455 31927 ft 466 kts
2026-05-04 12:41 46.66899 40.09423 32241 ft 465 kts
2026-05-04 12:41 46.70129 40.09409 32529 ft 464 kts
2026-05-04 12:42 46.73357 40.09410 32803 ft 464 kts
2026-05-04 12:42 46.76543 40.09421 33084 ft 463 kts
2026-05-04 12:42 46.79763 40.09436 33383 ft 463 kts
2026-05-04 12:42 46.82981 40.09451 33666 ft 462 kts
2026-05-04 12:43 46.86194 40.09467 33953 ft 462 kts
2026-05-04 12:43 46.89403 40.09481 34228 ft 461 kts
2026-05-04 12:43 46.92612 40.09495 34431 ft 462 kts
2026-05-04 12:43 46.95826 40.09509 34603 ft 463 kts
2026-05-04 12:44 46.99059 40.09523 34775 ft 464 kts
2026-05-04 12:44 47.02243 40.09536 34958 ft 464 kts
2026-05-04 12:44 47.05466 40.09549 35200 ft 463 kts
2026-05-04 12:44 47.08682 40.09561 35465 ft 462 kts
2026-05-04 12:45 47.11894 40.09575 35669 ft 462 kts
2026-05-04 12:45 47.15109 40.09589 35817 ft 463 kts
2026-05-04 12:45 47.18332 40.09605 35971 ft 463 kts
2026-05-04 12:46 47.23718 40.09637 35998 ft 468 kts
2026-05-04 12:46 47.30260 40.09674 36006 ft 471 kts
2026-05-04 12:47 47.37897 40.09716 36018 ft 473 kts
2026-05-04 12:47 47.44481 40.09753 36020 ft 473 kts
2026-05-04 12:48 47.49959 40.09783 36019 ft 473 kts
2026-05-04 12:48 47.56527 40.09820 36017 ft 471 kts
2026-05-04 12:49 47.63078 40.09857 36013 ft 470 kts 360°
2026-05-04 12:49 47.69598 40.09893 36011 ft 468 kts 360°
2026-05-04 12:50 47.76057 40.09930 36004 ft 466 kts 359°
2026-05-04 12:50 47.82532 40.09966 36003 ft 465 kts 359°
2026-05-04 12:51 47.88989 40.10100 36000 ft 464 kts
2026-05-04 12:51 47.95328 40.11873 36008 ft 464 kts 12°
2026-05-04 12:52 48.01596 40.13852 36014 ft 463 kts 11°
2026-05-04 12:52 48.07924 40.15724 36008 ft 464 kts 10°
2026-05-04 12:53 48.14294 40.17223 36014 ft 464 kts
2026-05-04 12:53 48.20697 40.18450 36010 ft 464 kts
2026-05-04 12:54 48.27066 40.19712 36010 ft 465 kts
2026-05-04 12:54 48.33473 40.21033 36009 ft 465 kts
2026-05-04 12:55 48.39889 40.22370 36013 ft 465 kts
2026-05-04 12:55 48.46300 40.23704 36012 ft 465 kts
2026-05-04 12:56 48.52671 40.25032 36008 ft 465 kts
2026-05-04 12:56 48.59072 40.26368 36011 ft 464 kts
2026-05-04 12:57 48.65475 40.27709 36015 ft 464 kts
2026-05-04 12:57 48.71865 40.29051 36007 ft 463 kts
2026-05-04 12:58 48.78202 40.30385 36012 ft 463 kts
2026-05-04 12:58 48.84577 40.31730 36014 ft 462 kts
2026-05-04 12:59 48.90938 40.33076 36016 ft 461 kts
2026-05-04 12:59 48.97292 40.34428 36015 ft 461 kts
2026-05-04 13:00 49.03639 40.35782 36015 ft 460 kts
2026-05-04 13:00 49.09932 40.37128 36012 ft 460 kts
2026-05-04 13:01 49.16265 40.38486 36018 ft 459 kts
2026-05-04 13:01 49.22589 40.39845 36020 ft 459 kts
2026-05-04 13:02 49.28908 40.41207 36018 ft 458 kts
2026-05-04 13:02 49.35178 40.42562 36017 ft 458 kts
2026-05-04 13:03 49.41489 40.43930 36015 ft 458 kts
2026-05-04 13:03 49.47797 40.45300 36016 ft 457 kts
2026-05-04 13:04 49.54096 40.46634 36010 ft 457 kts
2026-05-04 13:04 49.60387 40.47204 36016 ft 455 kts
2026-05-04 13:05 49.66718 40.47484 36011 ft 455 kts
2026-05-04 13:05 49.73045 40.47838 36020 ft 455 kts
2026-05-04 13:06 49.79367 40.48259 36011 ft 455 kts
2026-05-04 13:06 49.85644 40.48694 36013 ft 454 kts
2026-05-04 13:07 49.91955 40.49129 36012 ft 454 kts
2026-05-04 13:07 49.98268 40.49562 36008 ft 454 kts
2026-05-04 13:08 50.04578 40.50001 36010 ft 454 kts
2026-05-04 13:08 50.10753 40.51944 36024 ft 455 kts 17°
2026-05-04 13:09 50.16723 40.55033 36019 ft 455 kts 17°
2026-05-04 13:09 50.22747 40.58096 36012 ft 455 kts 17°
2026-05-04 13:10 50.28781 40.61108 36003 ft 455 kts 17°
2026-05-04 13:10 50.34827 40.64117 35999 ft 456 kts 17°
2026-05-04 13:11 50.40825 40.67110 36004 ft 456 kts 17°
2026-05-04 13:11 50.46867 40.70137 36014 ft 456 kts 17°
2026-05-04 13:12 50.52908 40.73173 36005 ft 456 kts 17°
2026-05-04 13:12 50.58944 40.76212 36009 ft 456 kts 17°
2026-05-04 13:13 50.64934 40.79240 36017 ft 455 kts 17°
2026-05-04 13:13 50.70963 40.82300 36012 ft 455 kts 17°
2026-05-04 13:14 50.76983 40.85364 36012 ft 454 kts 17°
2026-05-04 13:14 50.82994 40.88401 36006 ft 453 kts 14°
2026-05-04 13:15 50.89182 40.89474 36021 ft 450 kts 356°
2026-05-04 13:15 50.95364 40.88019 35996 ft 449 kts 349°
2026-05-04 13:16 51.01524 40.86370 36007 ft 449 kts 350°
2026-05-04 13:16 51.07650 40.84790 36005 ft 449 kts 350°
2026-05-04 13:17 51.13820 40.83229 36001 ft 449 kts 350°
2026-05-04 13:17 51.19988 40.81671 36008 ft 449 kts 350°
2026-05-04 13:18 51.26156 40.80106 36006 ft 449 kts 350°
2026-05-04 13:18 51.32277 40.78547 35999 ft 449 kts 350°
2026-05-04 13:19 51.38443 40.76973 35998 ft 448 kts 350°
2026-05-04 13:19 51.44598 40.75398 35999 ft 448 kts 350°
2026-05-04 13:20 51.50750 40.73819 35994 ft 448 kts 350°
2026-05-04 13:20 51.56895 40.72236 35992 ft 447 kts 350°
2026-05-04 13:21 51.62995 40.70662 35989 ft 447 kts 350°
2026-05-04 13:21 51.69122 40.69076 35986 ft 446 kts 350°
2026-05-04 13:22 51.75248 40.67483 35988 ft 445 kts 350°
2026-05-04 13:22 51.81359 40.65887 35986 ft 445 kts 350°
2026-05-04 13:23 51.87425 40.64301 35978 ft 444 kts 350°
2026-05-04 13:23 51.93526 40.62706 35975 ft 444 kts 350°
2026-05-04 13:24 51.99620 40.61107 35978 ft 443 kts 350°
2026-05-04 13:24 52.05701 40.59508 35975 ft 442 kts 350°
2026-05-04 13:25 52.14772 40.57114 35971 ft 442 kts 350°
2026-05-04 13:25 52.20843 40.55506 35970 ft 442 kts 350°
2026-05-04 13:26 52.26905 40.53896 35963 ft 441 kts 350°
2026-05-04 13:26 52.32923 40.52293 35962 ft 441 kts 350°
2026-05-04 13:27 52.38977 40.50676 35960 ft 441 kts 350°
2026-05-04 13:27 52.45029 40.49056 35958 ft 440 kts 350°
2026-05-04 13:28 52.50952 40.46681 35958 ft 439 kts 337°
2026-05-04 13:28 52.56311 40.41902 35953 ft 438 kts 329°
2026-05-04 13:29 52.61541 40.36894 35950 ft 438 kts 330°
2026-05-04 13:29 52.66828 40.31903 35947 ft 438 kts 330°
2026-05-04 13:30 52.72115 40.26930 35948 ft 438 kts 330°
2026-05-04 13:30 52.77400 40.21946 35949 ft 438 kts 330°
2026-05-04 13:31 52.82653 40.16978 35942 ft 438 kts 330°
2026-05-04 13:31 52.87933 40.11970 35939 ft 438 kts 330°
2026-05-04 13:32 52.93214 40.06947 35941 ft 437 kts 330°
2026-05-04 13:32 52.98484 40.01920 35936 ft 437 kts 330°
2026-05-04 13:33 53.03720 39.96910 35938 ft 437 kts 330°
2026-05-04 13:33 53.08983 39.91862 35933 ft 437 kts 330°
2026-05-04 13:34 53.14249 39.86795 35931 ft 437 kts 329°
2026-05-04 13:34 53.19510 39.81718 35932 ft 437 kts 329°
2026-05-04 13:35 53.27406 39.74071 35111 ft 444 kts 330°
2026-05-04 13:35 53.30066 39.71488 34473 ft 442 kts 330°
2026-05-04 13:36 53.32725 39.68902 33827 ft 441 kts 330°
2026-05-04 13:36 53.35378 39.66318 33064 ft 441 kts 330°
2026-05-04 13:36 53.38029 39.63732 32355 ft 440 kts 330°
2026-05-04 13:36 53.40666 39.61158 31842 ft 436 kts 330°
2026-05-04 13:37 53.43308 39.58705 31360 ft 431 kts 333°
2026-05-04 13:37 53.45924 39.56464 30895 ft 426 kts 334°
2026-05-04 13:37 53.48576 39.54262 30423 ft 423 kts 334°
2026-05-04 13:37 53.51205 39.52088 29928 ft 420 kts 334°
2026-05-04 13:38 53.53812 39.49919 29386 ft 416 kts 334°
2026-05-04 13:38 53.56389 39.47755 28896 ft 412 kts 334°
2026-05-04 13:38 53.58937 39.45601 28408 ft 408 kts 334°
2026-05-04 13:38 53.61455 39.43461 27924 ft 404 kts 334°
2026-05-04 13:39 53.63953 39.41332 27442 ft 401 kts 334°
2026-05-04 13:39 53.66428 39.39218 26956 ft 398 kts 334°
2026-05-04 13:39 53.68890 39.37112 26494 ft 395 kts 334°
2026-05-04 13:39 53.71296 39.35053 26029 ft 392 kts 334°
2026-05-04 13:40 53.73725 39.32971 25567 ft 390 kts 334°
2026-05-04 13:40 53.76131 39.30906 25114 ft 388 kts 334°
2026-05-04 13:40 53.77721 39.29539 24819 ft 386 kts 334°
2026-05-04 13:40 53.80918 39.26789 24201 ft 384 kts 334°
2026-05-04 13:41 53.83298 39.24739 23742 ft 383 kts 334°
2026-05-04 13:41 53.85669 39.22694 23243 ft 382 kts 334°
2026-05-04 13:41 53.88036 39.20649 22708 ft 381 kts 333°
2026-05-04 13:42 53.92714 39.16597 21672 ft 378 kts 333°
2026-05-04 13:42 53.95047 39.14571 21207 ft 376 kts 333°
2026-05-04 13:42 53.97363 39.12559 20760 ft 373 kts 333°
2026-05-04 13:42 53.99666 39.10554 20308 ft 371 kts 333°
2026-05-04 13:43 54.01952 39.08561 19879 ft 368 kts 333°
2026-05-04 13:43 54.04229 39.06575 19432 ft 366 kts 333°
2026-05-04 13:43 54.06490 39.04600 19005 ft 365 kts 333°
2026-05-04 13:43 54.08709 39.02658 18570 ft 363 kts 333°
2026-05-04 13:44 54.10952 39.00694 18138 ft 361 kts 333°
2026-05-04 13:44 54.13185 38.98736 17646 ft 360 kts 333°
2026-05-04 13:44 54.15403 38.96789 17177 ft 358 kts 333°
2026-05-04 13:44 54.17610 38.94850 16741 ft 355 kts 333°
2026-05-04 13:45 54.19798 38.92925 16406 ft 350 kts 332°
2026-05-04 13:45 54.21925 38.91050 16281 ft 339 kts 332°
2026-05-04 13:45 54.23973 38.89250 16035 ft 333 kts 333°
2026-05-04 13:45 54.26037 38.87482 15686 ft 330 kts 333°
2026-05-04 13:46 54.28092 38.85740 15307 ft 329 kts 333°
2026-05-04 13:46 54.30138 38.84008 14949 ft 327 kts 333°
2026-05-04 13:46 54.32174 38.82279 14569 ft 326 kts 333°
2026-05-04 13:46 54.34203 38.80552 14206 ft 325 kts 333°
2026-05-04 13:47 54.36226 38.78827 13834 ft 324 kts 333°
2026-05-04 13:47 54.38240 38.77104 13438 ft 323 kts 333°
2026-05-04 13:47 54.40248 38.75386 13022 ft 322 kts 333°
2026-05-04 13:47 54.42213 38.73701 12654 ft 319 kts 333°
2026-05-04 13:48 54.44198 38.71999 12277 ft 317 kts 333°
2026-05-04 13:48 54.46165 38.70310 11914 ft 315 kts 333°
2026-05-04 13:48 54.48124 38.68626 11552 ft 314 kts 332°
2026-05-04 13:48 54.50070 38.66948 11189 ft 312 kts 332°
2026-05-04 13:49 54.52003 38.65280 10861 ft 310 kts 332°
2026-05-04 13:49 54.53925 38.63618 10550 ft 307 kts 332°
2026-05-04 13:49 54.55821 38.61981 10351 ft 301 kts 332°
2026-05-04 13:49 54.57646 38.60404 10183 ft 294 kts 332°
2026-05-04 13:50 54.59451 38.58842 10082 ft 286 kts 332°
2026-05-04 13:50 54.61198 38.57328 9984 ft 278 kts 332°
2026-05-04 13:50 54.62892 38.55860 9894 ft 269 kts 332°
2026-05-04 13:50 54.64587 38.54385 9496 ft 273 kts 332°
2026-05-04 13:51 54.66286 38.52905 9173 ft 274 kts 332°
2026-05-04 13:51 54.67987 38.51422 8863 ft 273 kts 332°
2026-05-04 13:51 54.69684 38.49944 8566 ft 273 kts 331°
2026-05-04 13:51 54.71376 38.48469 8292 ft 272 kts 331°
2026-05-04 13:52 54.73911 38.43997 7774 ft 265 kts 294°
2026-05-04 13:52 54.74609 38.41060 7522 ft 264 kts 291°
2026-05-04 13:52 54.75253 38.38101 7299 ft 262 kts 290°
2026-05-04 13:53 54.75897 38.35160 7067 ft 261 kts 290°
2026-05-04 13:53 54.76549 38.32239 6828 ft 259 kts 291°
2026-05-04 13:53 54.77199 38.29352 6616 ft 256 kts 291°
2026-05-04 13:54 54.78485 38.23683 6170 ft 253 kts 293°
2026-05-04 13:54 54.79517 38.21283 6025 ft 249 kts 322°
2026-05-04 13:54 54.82668 38.18992 5987 ft 245 kts 341°
2026-05-04 13:55 54.84301 38.18185 5994 ft 244 kts 341°
2026-05-04 13:55 54.87580 38.16508 5983 ft 247 kts 340°
2026-05-04 13:55 54.89219 38.15651 5991 ft 245 kts 340°
2026-05-04 13:56 54.90864 38.14956 5958 ft 243 kts 350°
2026-05-04 13:56 54.92516 38.14745 5821 ft 239 kts 354°
2026-05-04 13:56 54.95819 38.14504 5461 ft 238 kts 353°
2026-05-04 13:57 54.97455 38.14345 5281 ft 235 kts 353°
2026-05-04 13:57 54.99087 38.14166 5074 ft 234 kts 353°
2026-05-04 13:58 55.03963 38.13562 4541 ft 233 kts 352°
2026-05-04 13:58 55.07158 38.13138 4184 ft 230 kts 352°
2026-05-04 13:58 55.08753 38.12921 4096 ft 231 kts 352°
2026-05-04 13:59 55.10361 38.12707 3986 ft 232 kts 353°
2026-05-04 13:59 55.11969 38.12494 3922 ft 232 kts 352°
2026-05-04 13:59 55.15131 38.11620 3749 ft 228 kts 345°
2026-05-04 14:00 55.16692 38.11093 3659 ft 228 kts 346°
2026-05-04 14:00 55.19803 38.10082 3504 ft 228 kts 346°
2026-05-04 14:00 55.21340 38.09609 3422 ft 222 kts 346°
2026-05-04 14:01 55.22844 38.09126 3324 ft 217 kts 346°
2026-05-04 14:01 55.24282 38.08583 3267 ft 206 kts 335°
2026-05-04 14:01 55.26456 38.05922 3141 ft 182 kts 323°
2026-05-04 14:02 55.27483 38.04720 3041 ft 174 kts 322°
2026-05-04 14:02 55.28460 38.03578 3062 ft 161 kts 323°
2026-05-04 14:02 55.29358 38.02549 2923 ft 153 kts 323°
2026-05-04 14:02 55.30216 38.01547 2744 ft 147 kts 322°
2026-05-04 14:03 55.31050 38.00548 2565 ft 145 kts 321°
2026-05-04 14:03 55.31884 37.99543 2376 ft 145 kts 321°
2026-05-04 14:03 55.32708 37.98549 2171 ft 142 kts 321°
2026-05-04 14:03 55.33513 37.97539 1998 ft 143 kts 322°
2026-05-04 14:04 55.35160 37.95597 1609 ft 142 kts 321°
2026-05-04 14:04 55.35972 37.94605 1432 ft 144 kts 322°
2026-05-04 14:04 55.36778 37.93635 1240 ft 141 kts 322°
2026-05-04 14:05 55.38403 37.91678 831 ft 143 kts 324°
2026-05-04 14:05 55.39100 37.90839 667 ft 142 kts 323°
2026-05-04 14:05 55.39895 37.89886 555 ft 129 kts 324°
2026-05-04 14:06 55.40542 37.89096 568 ft 93 kts 326°
2026-05-04 14:06 55.40848 37.88785 579 ft 31 kts 344°
2026-05-04 14:06 55.41015 37.88749 575 ft 17 kts
2026-05-04 14:06 55.41033 37.88870 579 ft 12 kts 136°
2026-05-04 14:07 55.40965 37.88953 580 ft 12 kts 146°
2026-05-04 14:07 55.40898 37.89034 577 ft 12 kts 146°
2026-05-04 14:07 55.40825 37.89121 577 ft 13 kts 145°
2026-05-04 14:07 55.40784 37.89254 570 ft 13 kts 97°
2026-05-04 14:08 55.40799 37.89404 569 ft 12 kts 63°
2026-05-04 14:08 55.40850 37.89522 570 ft 12 kts 41°
2026-05-04 14:08 55.40902 37.89635 569 ft 12 kts 56°
2026-05-04 14:08 55.40948 37.89752 569 ft 11 kts 55°
2026-05-04 14:09 55.41045 37.89834 573 ft 8 kts 328°
2026-05-04 14:09 55.41091 37.89780 573 ft 8 kts 326°
2026-05-04 14:10 55.41182 37.89690 578 ft 7 kts
2026-05-04 14:10 55.41217 37.89758 577 ft 8 kts 51°
2026-05-04 14:10 55.41245 37.89834 575 ft 5 kts 64°
2026-05-04 14:10 55.41253 37.89864 577 ft 0 kts 64°